SP2WM Weather Reports


time (UTC)temp
C
wind
direction
speed
KPH
gust
KPH
rain 1hr
cm
rain 24hr
cm
rain mn
cm
humidity
%
barometer
mb
20260504045024 14 143 1.6 6.4 0.00 0.00 0.00 61 1009.4
20260504044025 13 144 0.0 3.2 0.00 0.00 0.00 63 1009.3
20260504043026 13 143 0.0 4.8 0.00 0.00 0.00 63 1009.4
20260504042032 13 143 1.6 3.2 0.00 0.00 0.00 64 1009.3
20260504041031 12 144 1.6 3.2 0.00 0.00 0.00 65 1009.3
20260504040032 12 144 0.0 4.8 0.00 0.00 0.00 66 1009.4
20260504035035 12 144 0.0 1.6 0.00 0.00 0.00 66 1009.4
20260504034038 12 143 0.0 1.6 0.00 0.00 0.00 66 1009.4
20260504033038 12 144 0.0 1.6 0.00 0.00 0.00 65 1009.4
20260504032038 12 144 0.0 3.2 0.00 0.00 0.00 65 1009.3
20260504031037 12 144 0.0 1.6 0.00 0.00 0.00 64 1009.4
20260504030022 12 144 0.0 1.6 0.00 0.00 0.00 64 1009.3
20260504025023 12 144 0.0 1.6 0.00 0.00 0.00 63 1009.3
20260504024024 12 144 0.0 1.6 0.00 0.00 0.00 63 1009.2
20260504023022 13 144 0.0 1.6 0.00 0.00 0.00 62 1009.3
20260504022027 13 143 1.6 4.8 0.00 0.00 0.00 61 1009.2
20260504021026 13 144 0.0 1.6 0.00 0.00 0.00 61 1009.4
20260504020026 13 143 1.6 4.8 0.00 0.00 0.00 60 1009.5
20260504015026 13 143 0.0 1.6 0.00 0.00 0.00 60 1009.6
20260504014024 14 144 0.0 3.2 0.00 0.00 0.00 58 1009.4
20260504013026 15 144 0.0 4.8 0.00 0.00 0.00 57 1009.5
20260504012026 15 143 0.0 3.2 0.00 0.00 0.00 55 1009.5
20260504011024 15 143 1.6 6.4 0.00 0.00 0.00 55 1009.4
20260504005032 15 144 1.6 6.4 0.00 0.00 0.00 54 1009.4
20260504004028 15 143 0.0 4.8 0.00 0.00 0.00 55 1009.4
20260504003030 15 143 0.0 3.2 0.00 0.00 0.00 55 1009.4
20260504002032 15 143 0.0 1.6 0.00 0.00 0.00 55 1009.5
20260504001034 15 143 0.0 3.2 0.00 0.00 0.00 56 1009.6
20260504000034 15 144 0.0 1.6 0.00 0.00 0.00 56 1009.5
20260503235036 15 144 0.0 3.2 0.00 0.00 0.00 56 1009.6
20260503234036 16 143 0.0 3.2 0.00 0.00 0.00 54 1009.6
20260503233020 15 144 0.0 1.6 0.00 0.00 0.00 54 1009.7
20260503232023 16 143 0.0 1.6 0.00 0.00 0.00 53 1009.6
20260503231022 16 143 0.0 1.6 0.00 0.00 0.00 52 1009.7
20260503230021 16 143 1.6 4.8 0.00 0.00 0.00 52 1009.7
20260503225022 16 143 0.0 4.8 0.00 0.00 0.00 52 1009.7
20260503224024 16 144 0.0 3.2 0.00 0.00 0.00 51 1009.6
20260503223025 16 143 0.0 4.8 0.00 0.00 0.00 51 1009.7
20260503222024 17 143 0.0 4.8 0.00 0.00 0.00 51 1009.7
20260503221023 17 143 1.6 4.8 0.00 0.00 0.00 50 1009.9
20260503220027 17 143 0.0 3.2 0.00 0.00 0.00 50 1009.8
20260503215027 17 144 0.0 4.8 0.00 0.00 0.00 49 1009.9
20260503214025 17 144 1.6 4.8 0.00 0.00 0.00 49 1009.9
20260503213026 17 143 1.6 4.8 0.00 0.00 0.00 48 1009.8
20260503212031 17 143 1.6 6.4 0.00 0.00 0.00 48 1009.8
20260503211029 17 143 1.6 6.4 0.00 0.00 0.00 47 1009.8
20260503210029 17 143 3.2 6.4 0.00 0.00 0.00 47 1009.8
20260503205029 17 143 1.6 4.8 0.00 0.00 0.00 47 1009.9
20260503203024 18 143 1.6 4.8 0.00 0.00 0.00 46 1010.0
20260503202024 18 143 0.0 4.8 0.00 0.00 0.00 46 1010.0
20260503201023 18 143 1.6 4.8 0.00 0.00 0.00 45 1010.0
20260503200024 18 143 1.6 4.8 0.00 0.00 0.00 44 1010.0
20260503195031 18 143 1.6 4.8 0.00 0.00 0.00 44 1010.0
20260503194029 19 143 1.6 6.4 0.00 0.00 0.00 44 1010.1
20260503193027 19 143 1.6 6.4 0.00 0.00 0.00 43 1010.1
20260503192030 19 143 0.0 3.2 0.00 0.00 0.00 42 1010.0
20260503191034 20 143 0.0 3.2 0.00 0.00 0.00 42 1010.0
20260503190034 20 143 0.0 3.2 0.00 0.00 0.00 41 1010.0
20260503185034 20 143 0.0 1.6 0.00 0.00 0.00 40 1010.1
20260503184033 21 143 0.0 1.6 0.00 0.00 0.00 39 1010.0
20260503183038 21 143 0.0 0.0 0.00 0.00 0.00 37 1009.9
20260503182039 22 143 0.0 1.6 0.00 0.00 0.00 34 1009.8
20260503181038 22 143 0.0 1.6 0.00 0.00 0.00 34 1009.8
20260503180037 23 143 0.0 0.0 0.00 0.00 0.00 33 1009.8
20260503175038 25 143 0.0 0.0 0.00 0.00 0.00 30 1009.7
20260503174039 25 143 0.0 1.6 0.00 0.00 0.00 29 1009.7
20260503173038 26 143 0.0 1.6 0.00 0.00 0.00 27 1009.6
20260503172039 26 143 0.0 4.8 0.00 0.00 0.00 27 1009.6
20260503171040 26 143 1.6 8.0 0.00 0.00 0.00 26 1009.6
20260503131026 27 144 9.7 19.3 0.00 0.00 0.00 22 1011.4
20260503081028 23 146 4.8 11.3 0.00 0.00 0.00 31 1013.8
20260503072034 21 146 6.4 22.5 0.00 0.00 0.00 34 1014.0
20260503071034 21 146 4.8 12.9 0.00 0.00 0.00 36 1014.0